Lid_Strength_Index
3 3 4 4 5 6 7 8 8 7 8 9 10 10 11 12 12 11 12 13 12 12 12 12 11 11 11 10 10 10 10 10 11 10 9 8 8 9 8 7 7 7 8
3 3 4 4 5 6 7 7 7 8 8 9 10 11 11 12 12 13 13 13 13 13 13 12 12 12 11 10 10 10 10 10 11 12 10 9 9 9 9 8 8 8 8
4 3 3 4 5 6 7 7 8 8 10 10 11 11 12 12 12 13 13 13 13 13 13 12 12 12 11 10 10 10 11 10 10 11 11 10 10 9 9 8 8 8 9
4 4 4 4 4 5 6 7 8 10 10 11 11 11 12 13 13 13 14 14 13 14 12 12 13 12 11 11 11 11 11 11 11 11 11 11 11 9 9 10 11 10 10
4 4 4 4 4 5 5 7 8 9 10 11 11 12 12 13 13 13 14 14 14 14 14 14 13 14 15 15 13 11 12 12 12 13 13 12 11 11 11 11 12 12 11
4 4 4 4 5 6 7 8 8 9 11 11 12 12 13 13 14 14 14 14 14 14 14 14 13 15 15 16 16 15 15 14 15 14 14 13 12 11 12 12 13 13 13
3 4 4 4 6 7 8 9 10 10 11 11 11 12 13 14 14 14 14 13 14 14 14 13 13 13 15 13 14 13 14 14 14 14 14 13 13 12 12 13 13 13 12
3 3 4 4 6 7 8 9 10 11 11 12 13 13 13 15 14 14 14 14 14 14 13 13 13 13 13 14 14 14 13 12 12 12 12 12 12 12 12 12 12 12 10
2 2 3 4 6 7 9 10 11 12 12 13 13 14 14 15 14 14 14 14 14 14 13 13 13 13 15 16 15 15 14 12 11 12 12 12 12 11 11 12 12 12 12
2 2 2 4 7 9 10 11 12 12 13 13 13 13 14 14 14 14 14 14 14 13 13 13 15 15 16 16 16 15 15 13 13 13 12 12 11 10 10 10 10 12 12
5 7 9 9 10 11 12 12 12 13 13 13 13 13 13 12 12 12 13 13 13 13 13 13 14 15 16 17 16 15 15 15 15 14 12 11 10 9 9 9 9 10 12
9 10 10 11 11 12 12 12 12 13 13 13 14 13 12 12 12 12 13 14 14 13 13 12 14 15 16 16 16 16 16 15 13 12 12 12 11 10 9 9 10 10 10
10 11 11 12 12 12 12 12 12 12 13 13 14 14 14 13 13 13 14 14 15 13 11 15 15 16 16 15 15 15 15 13 13 13 13 12 10 10 10 10 10 10 10
12 12 12 12 12 11 11 11 12 12 13 13 13 14 14 13 13 13 13 14 14 14 14 13 14 14 15 14 15 13 13 12 12 12 12 11 11 11 11 11 12 12 12
11 11 11 11 11 11 11 11 11 11 11 12 12 11 12 12 12 12 12 13 12 12 12 12 13 12 12 12 12 12 12 11 11 11 11 12 13 12 12 12 12 13 14
11 10 10 10 11 11 11 11 11 11 10 10 10 10 10 10 11 12 12 12 13 14 13 14 13 12 13 13 13 12 11 11 11 12 13 13 13 13 13 13 13 13 14
9 9 10 10 10 11 11 12 14 13 12 12 11 11 11 12 12 13 13 13 14 14 14 13 12 12 12 13 12 12 12 11 12 13 13 14 14 15 14 15 14 14 14
9 10 9 9 9 10 10 11 11 12 13 14 13 12 12 12 13 13 13 14 14 14 13 13 12 12 12 12 11 12 12 12 13 14 14 15 15 15 15 15 15 15 15
9 9 9 10 9 9 9 10 10 11 12 13 13 13 12 13 13 13 13 13 13 12 12 12 11 12 11 11 11 12 13 13 14 15 14 15 15 16 16 16 15 16 16
9 10 9 9 9 10 10 11 11 10 10 11 12 12 12 12 13 13 12 12 12 12 12 12 12 11 10 11 12 13 13 14 14 15 15 15 15 16 16 16 16 16 16
9 9 10 9 10 10 10 10 10 10 11 11 11 10 11 12 11 11 11 11 11 12 11 11 11 10 10 11 12 13 14 14 15 16 16 16 16 17 16 16 16 16 16
9 9 9 10 10 9 10 10 10 11 11 11 10 12 12 11 11 11 11 10 10 11 11 11 11 11 11 12 13 14 15 16 16 16 16 17 17 17 16 16 16 16 17
9 9 10 10 9 10 10 10 10 10 10 11 10 12 12 12 11 11 11 10 11 11 11 11 11 12 12 13 14 15 16 17 16 16 17 18 18 17 17 18 18 17 18
9 9 9 9 10 10 10 10 10 11 11 10 10 10 10 11 11 11 11 10 11 11 11 11 12 14 14 15 16 16 16 16 17 18 18 19 19 19 18 18 18 18 18
8 8 9 10 10 10 10 10 10 10 10 10 10 10 11 11 11 11 11 11 12 13 13 13 13 15 15 17 17 18 18 18 19 20 20 20 20 19 19 18 17 17 18
9 9 9 9 10 10 10 10 10 11 10 10 10 10 11 11 11 11 11 12 13 13 14 14 15 15 16 17 17 17 19 21 21 21 20 20 20 19 18 17 18 18 18